QPF
0.01 0.03 0.04 0.02 0.01 0.01 0.00 0.00 0.00 0.00 0.00 0.00 0.00 0.00 0.00 0.00 0.00 0.00 0.00 0.00 0.00 0.00 0.00 0.00 0.00 0.00 0.00 0.00 0.00 0.00 0.00 0.00 0.00 0.00 0.00 0.00 0.00 0.01 0.01 0.00 0.00 0.00 0.00 0.00
0.01 0.02 0.04 0.04 0.02 0.01 0.00 0.00 0.02 0.03 0.00 0.00 0.00 0.00 0.00 0.00 0.00 0.00 0.00 0.00 0.00 0.00 0.00 0.00 0.00 0.00 0.00 0.00 0.00 0.00 0.00 0.00 0.00 0.00 0.00 0.00 0.00 0.00 0.00 0.00 0.00 0.00 0.00 0.00
0.01 0.01 0.02 0.05 0.03 0.01 0.00 0.00 0.03 0.10 0.03 0.00 0.00 0.00 0.00 0.00 0.00 0.00 0.00 0.00 0.00 0.00 0.00 0.00 0.00 0.00 0.00 0.00 0.00 0.00 0.00 0.00 0.00 0.00 0.00 0.00 0.00 0.00 0.00 0.00 0.00 0.00 0.00 0.00
0.01 0.01 0.01 0.03 0.04 0.01 0.00 0.00 0.00 0.01 0.01 0.00 0.00 0.00 0.00 0.00 0.00 0.00 0.00 0.00 0.00 0.00 0.00 0.00 0.00 0.00 0.00 0.00 0.00 0.00 0.00 0.00 0.00 0.00 0.00 0.00 0.00 0.00 0.00 0.00 0.00 0.00 0.00 0.00
0.00 0.00 0.01 0.02 0.04 0.03 0.01 0.00 0.00 0.00 0.00 0.00 0.00 0.00 0.00 0.00 0.00 0.00 0.00 0.00 0.00 0.00 0.00 0.00 0.00 0.00 0.00 0.00 0.00 0.00 0.00 0.00 0.00 0.00 0.00 0.00 0.00 0.00 0.00 0.00 0.00 0.00 0.00 0.00
0.00 0.00 0.01 0.01 0.03 0.06 0.01 0.00 0.00 0.00 0.00 0.00 0.00 0.00 0.00 0.00 0.00 0.00 0.00 0.00 0.00 0.00 0.00 0.00 0.00 0.00 0.00 0.00 0.00 0.00 0.00 0.00 0.00 0.00 0.00 0.00 0.00 0.00 0.00 0.00 0.00 0.00 0.00 0.00
0.00 0.00 0.00 0.00 0.03 0.04 0.01 0.00 0.02 0.04 0.02 0.00 0.00 0.00 0.00 0.00 0.00 0.00 0.00 0.00 0.00 0.00 0.00 0.00 0.00 0.00 0.00 0.01 0.02 0.00 0.01 0.00 0.00 0.00 0.00 0.00 0.00 0.00 0.00 0.00 0.00 0.00 0.00 0.00
0.01 0.01 0.01 0.00 0.01 0.02 0.00 0.01 0.04 0.06 0.02 0.00 0.00 0.00 0.00 0.00 0.00 0.00 0.00 0.00 0.00 0.00 0.00 0.02 0.02 0.00 0.00 0.00 0.00 0.01 0.01 0.00 0.00 0.00 0.00 0.00 0.00 0.00 0.00 0.00 0.00 0.00 0.00 0.00
0.01 0.01 0.02 0.00 0.00 0.01 0.00 0.01 0.02 0.05 0.05 0.01 0.00 0.00 0.00 0.00 0.00 0.00 0.01 0.02 0.01 0.00 0.00 0.00 0.00 0.00 0.00 0.00 0.00 0.00 0.00 0.00 0.00 0.00 0.00 0.00 0.00 0.00 0.00 0.00 0.00 0.00 0.00 0.00
0.02 0.02 0.01 0.00 0.00 0.00 0.00 0.00 0.02 0.04 0.07 0.00 0.00 0.00 0.00 0.01 0.00 0.00 0.00 0.01 0.02 0.00 0.01 0.01 0.00 0.00 0.00 0.00 0.00 0.00 0.00 0.00 0.00 0.00 0.00 0.00 0.00 0.00 0.00 0.00 0.00 0.00 0.00 0.00
0.01 0.01 0.00 0.00 0.00 0.00 0.00 0.00 0.01 0.02 0.04 0.01 0.00 0.00 0.01 0.00 0.00 0.00 0.00 0.00 0.01 0.00 0.01 0.00 0.00 0.00 0.00 0.00 0.00 0.00 0.00 0.00 0.00 0.00 0.00 0.00 0.00 0.00 0.00 0.00 0.00 0.00 0.00 0.00
0.00 0.00 0.00 0.00 0.00 0.00 0.00 0.00 0.01 0.02 0.03 0.05 0.01 0.00 0.00 0.00 0.00 0.00 0.00 0.00 0.00 0.00 0.00 0.00 0.00 0.00 0.00 0.00 0.00 0.00 0.00 0.00 0.00 0.00 0.00 0.00 0.00 0.00 0.00 0.00 0.00 0.00 0.00 0.00
0.00 0.00 0.00 0.00 0.00 0.00 0.00 0.01 0.01 0.06 0.07 0.06 0.04 0.01 0.00 0.00 0.00 0.00 0.00 0.00 0.00 0.00 0.00 0.00 0.00 0.00 0.00 0.00 0.00 0.00 0.00 0.00 0.00 0.00 0.00 0.00 0.00 0.00 0.00 0.00 0.00 0.00 0.00 0.00
0.00 0.00 0.00 0.00 0.00 0.00 0.01 0.02 0.04 0.05 0.08 0.07 0.06 0.00 0.00 0.00 0.00 0.00 0.00 0.00 0.00 0.00 0.00 0.00 0.00 0.00 0.00 0.00 0.00 0.00 0.00 0.00 0.00 0.00 0.00 0.00 0.00 0.00 0.00 0.00 0.00 0.00 0.00 0.00
0.00 0.00 0.00 0.00 0.00 0.01 0.02 0.04 0.05 0.07 0.08 0.07 0.03 0.01 0.00 0.00 0.00 0.00 0.00 0.00 0.00 0.00 0.00 0.00 0.00 0.00 0.00 0.00 0.00 0.00 0.00 0.00 0.00 0.00 0.00 0.00 0.00 0.00 0.00 0.00 0.00 0.00 0.00 0.00
0.00 0.00 0.00 0.00 0.01 0.01 0.02 0.03 0.05 0.10 0.11 0.08 0.05 0.01 0.00 0.00 0.00 0.00 0.00 0.01 0.00 0.00 0.00 0.00 0.00 0.00 0.00 0.00 0.00 0.00 0.00 0.00 0.00 0.00 0.00 0.00 0.00 0.00 0.00 0.00 0.00 0.00 0.00 0.00
0.00 0.00 0.00 0.01 0.02 0.02 0.04 0.04 0.07 0.10 0.11 0.07 0.03 0.03 0.02 0.00 0.00 0.00 0.00 0.00 0.00 0.01 0.00 0.00 0.00 0.00 0.00 0.00 0.00 0.00 0.00 0.00 0.00 0.00 0.00 0.00 0.00 0.00 0.00 0.00 0.00 0.00 0.00 0.00
0.00 0.00 0.00 0.01 0.01 0.02 0.03 0.01 0.04 0.05 0.04 0.04 0.02 0.00 0.00 0.01 0.01 0.01 0.00 0.00 0.01 0.02 0.00 0.00 0.00 0.00 0.00 0.00 0.00 0.00 0.00 0.00 0.00 0.00 0.00 0.00 0.00 0.00 0.00 0.00 0.00 0.00 0.00 0.00
0.00 0.00 0.01 0.02 0.03 0.06 0.04 0.01 0.01 0.01 0.01 0.02 0.01 0.01 0.00 0.00 0.00 0.00 0.00 0.00 0.01 0.00 0.00 0.00 0.00 0.00 0.00 0.00 0.00 0.00 0.00 0.00 0.00 0.00 0.00 0.00 0.00 0.00 0.00 0.00 0.00 0.00 0.00 0.00
0.01 0.01 0.03 0.04 0.03 0.03 0.01 0.00 0.00 0.00 0.00 0.00 0.00 0.01 0.00 0.00 0.00 0.00 0.00 0.00 0.00 0.00 0.00 0.00 0.00 0.00 0.00 0.00 0.00 0.00 0.00 0.00 0.00 0.00 0.00 0.00 0.00 0.00 0.00 0.00 0.00 0.00 0.00 0.00
0.04 0.03 0.01 0.01 0.00 0.01 0.00 0.00 0.00 0.00 0.00 0.00 0.00 0.00 0.00 0.00 0.01 0.03 0.02 0.02 0.01 0.01 0.01 0.00 0.00 0.00 0.00 0.00 0.00 0.00 0.00 0.00 0.00 0.00 0.00 0.00 0.00 0.00 0.00 0.00 0.00 0.00 0.00 0.00
0.02 0.00 0.00 0.01 0.01 0.01 0.00 0.00 0.00 0.00 0.00 0.00 0.00 0.00 0.00 0.00 0.01 0.02 0.02 0.02 0.01 0.01 0.00 0.00 0.00 0.00 0.00 0.00 0.00 0.00 0.00 0.00 0.00 0.00 0.00 0.00 0.00 0.00 0.00 0.00 0.00 0.00 0.00 0.00
0.00 0.00 0.00 0.01 0.00 0.00 0.00 0.00 0.00 0.00 0.00 0.00 0.00 0.00 0.00 0.00 0.00 0.00 0.00 0.00 0.00 0.00 0.00 0.00 0.00 0.00 0.00 0.00 0.00 0.00 0.00 0.00 0.00 0.00 0.00 0.00 0.00 0.00 0.00 0.00 0.00 0.00 0.00 0.00
0.00 0.00 0.00 0.00 0.00 0.00 0.00 0.00 0.00 0.00 0.00 0.00 0.00 0.00 0.00 0.00 0.00 0.00 0.00 0.00 0.00 0.00 0.00 0.00 0.00 0.00 0.00 0.00 0.00 0.00 0.00 0.00 0.00 0.00 0.00 0.00 0.00 0.00 0.00 0.00 0.00 0.00 0.00 0.00
0.00 0.00 0.00 0.00 0.00 0.00 0.00 0.00 0.00 0.00 0.00 0.00 0.00 0.00 0.00 0.00 0.00 0.00 0.00 0.00 0.00 0.00 0.00 0.00 0.00 0.00 0.00 0.00 0.00 0.00 0.00 0.00 0.00 0.00 0.00 0.00 0.00 0.00 0.00 0.00 0.00 0.00 0.00 0.00
0.00 0.00 0.00 0.00 0.00 0.00 0.00 0.00 0.00 0.00 0.00 0.00 0.00 0.00 0.00 0.00 0.00 0.00 0.00 0.00 0.00 0.00 0.00 0.00 0.00 0.00 0.00 0.00 0.00 0.00 0.00 0.00 0.00 0.00 0.00 0.00 0.00 0.00 0.00 0.00 0.00 0.00 0.00 0.00
0.00 0.00 0.00 0.00 0.00 0.00 0.00 0.00 0.00 0.00 0.00 0.00 0.00 0.00 0.00 0.00 0.00 0.00 0.00 0.00 0.00 0.00 0.00 0.00 0.00 0.00 0.00 0.00 0.00 0.00 0.00 0.00 0.00 0.00 0.00 0.00 0.00 0.00 0.00 0.00 0.00 0.00 0.00 0.00
MSLP
1007.38 1007.83 1008.26 1009.10 1010.14 1011.46 1012.44 1011.79 1011.63 1010.87 1012.21 1014.00 1013.05 1011.58 1010.35 1008.98 1006.82 1006.14 1005.60 1004.69 1004.65 1004.93 1005.44 1006.08 1006.35 1006.69 1006.82 1006.10 1006.80 1008.64 1009.79 1010.85 1011.34 1010.56 1009.01 1008.44 1008.58 1009.28 1010.50 1012.42 1013.83 1014.25 1013.77 1012.13
1006.29 1006.92 1007.36 1008.09 1009.14 1010.00 1010.67 1010.42 1010.87 1011.34 1010.20 1011.08 1010.88 1010.57 1009.80 1008.71 1007.06 1005.98 1005.18 1004.58 1004.55 1004.60 1005.33 1007.45 1005.83 1006.54 1006.91 1006.54 1007.15 1008.26 1009.09 1009.97 1010.69 1010.38 1009.63 1008.72 1008.63 1008.86 1009.64 1011.04 1012.62 1013.60 1013.55 1011.78
1005.38 1006.01 1006.93 1007.19 1007.98 1008.86 1009.53 1009.32 1009.47 1010.22 1010.08 1008.46 1008.97 1009.32 1008.54 1007.98 1006.60 1006.02 1005.23 1004.57 1004.51 1004.67 1005.15 1005.81 1005.87 1006.81 1007.30 1007.30 1007.80 1008.31 1008.73 1009.83 1010.70 1010.84 1010.13 1009.36 1009.09 1009.08 1009.52 1010.46 1012.17 1012.71 1012.39 1011.18
1004.23 1005.22 1006.11 1006.44 1007.10 1007.94 1008.40 1007.46 1006.52 1006.10 1006.92 1007.71 1007.67 1007.91 1007.57 1007.05 1006.23 1005.51 1004.77 1004.56 1004.35 1004.73 1004.87 1005.01 1005.57 1006.67 1007.76 1008.20 1008.45 1008.70 1009.17 1010.40 1010.85 1010.83 1010.48 1009.99 1009.44 1009.43 1009.65 1009.96 1010.47 1011.29 1011.00 1010.57
1003.43 1004.28 1005.49 1005.73 1006.26 1007.49 1007.49 1005.86 1004.65 1005.19 1005.02 1006.51 1007.05 1006.52 1005.98 1005.76 1005.24 1004.81 1004.37 1004.56 1004.11 1004.38 1004.99 1005.18 1005.62 1006.41 1007.24 1007.96 1008.98 1009.15 1009.64 1011.11 1011.69 1011.95 1011.26 1010.75 1010.29 1009.62 1009.40 1009.41 1009.48 1009.69 1009.90 1009.69
1002.56 1003.35 1004.55 1005.14 1005.47 1006.74 1005.90 1005.51 1003.88 1003.80 1004.72 1005.31 1005.99 1004.19 1004.50 1004.60 1004.58 1003.97 1003.60 1003.73 1004.12 1004.58 1004.99 1005.28 1005.90 1005.99 1006.91 1007.59 1008.69 1009.80 1010.69 1012.03 1013.29 1013.70 1013.04 1012.07 1011.23 1009.56 1009.08 1009.02 1009.09 1009.39 1009.72 1009.76
1001.64 1002.62 1003.73 1004.47 1004.96 1005.61 1005.63 1004.93 1004.38 1003.97 1003.99 1004.20 1002.91 1003.97 1004.32 1004.14 1003.88 1004.10 1003.32 1003.46 1004.05 1004.90 1004.69 1005.81 1006.74 1007.36 1008.05 1008.50 1009.15 1009.82 1011.36 1013.00 1014.24 1015.33 1014.90 1013.45 1010.59 1009.04 1008.60 1008.89 1009.52 1009.48 1009.85 1010.09
1000.97 1002.04 1002.94 1003.56 1004.48 1005.23 1006.05 1005.53 1005.35 1003.98 1003.50 1003.08 1003.63 1003.28 1002.94 1003.86 1003.80 1004.21 1003.76 1003.86 1003.73 1004.40 1005.98 1008.37 1009.66 1010.19 1010.26 1010.22 1010.43 1010.85 1011.55 1013.41 1015.51 1016.23 1015.77 1013.45 1010.72 1009.52 1009.01 1008.95 1010.37 1010.24 1010.35 1010.60
1000.40 1001.28 1002.12 1002.89 1003.69 1004.78 1005.89 1005.30 1005.19 1004.58 1003.60 1001.53 1001.44 1002.50 1002.46 1002.95 1003.62 1004.37 1004.52 1004.56 1005.20 1004.78 1007.35 1009.37 1011.10 1011.29 1011.07 1011.44 1011.52 1011.93 1012.52 1013.64 1015.49 1016.68 1016.16 1014.19 1011.32 1009.80 1009.14 1009.17 1010.69 1010.84 1010.82 1011.13
999.82 1000.94 1001.72 1002.59 1003.46 1004.48 1005.56 1005.30 1005.93 1005.44 1003.57 1001.28 1000.87 1000.60 1000.62 1001.65 1003.02 1004.28 1005.12 1005.67 1006.58 1006.08 1008.59 1010.62 1011.51 1011.61 1011.05 1011.94 1012.32 1013.23 1014.05 1014.89 1015.99 1016.21 1015.51 1013.33 1010.83 1009.70 1009.56 1010.42 1011.81 1011.19 1011.32 1011.61
999.42 1000.40 1001.40 1002.40 1003.07 1003.99 1005.32 1005.32 1005.68 1005.52 1004.31 1001.52 1000.28 1000.06 1000.08 1000.80 1001.60 1003.53 1005.07 1006.57 1007.64 1007.64 1008.90 1010.53 1011.55 1012.36 1011.66 1011.76 1011.96 1012.46 1013.31 1014.50 1015.34 1015.40 1014.63 1012.80 1010.21 1010.00 1010.37 1010.96 1011.23 1011.52 1011.75 1011.98
999.36 1000.23 1001.19 1002.08 1003.11 1004.01 1005.08 1005.85 1005.76 1006.06 1005.53 1003.27 1001.46 1000.01 999.74 999.00 999.66 1001.79 1003.99 1004.85 1005.89 1005.87 1007.05 1009.48 1011.25 1012.47 1012.52 1012.29 1012.40 1011.33 1011.86 1011.81 1012.61 1012.70 1012.08 1010.86 1009.96 1010.08 1010.28 1010.66 1011.52 1012.08 1012.39 1012.60
999.31 1000.20 1000.92 1002.01 1002.71 1003.64 1004.33 1005.48 1005.40 1005.83 1005.42 1003.70 1002.44 1000.55 1000.03 999.01 999.43 999.81 1002.08 1003.55 1004.29 1004.61 1005.06 1008.40 1010.80 1012.06 1012.47 1012.52 1011.85 1010.95 1010.26 1010.17 1010.93 1011.35 1010.82 1010.52 1010.36 1010.84 1010.99 1011.37 1012.24 1012.80 1013.31 1013.62
999.16 999.84 1000.92 1001.89 1002.45 1003.08 1004.00 1004.96 1005.12 1005.21 1004.53 1003.67 1002.28 1000.70 1000.25 1000.05 999.36 1000.08 1000.72 1002.03 1002.97 1003.97 1005.33 1008.25 1010.48 1011.17 1010.88 1011.74 1011.04 1010.49 1009.80 1009.81 1010.45 1010.99 1010.90 1011.28 1011.91 1011.96 1012.24 1012.73 1013.13 1013.88 1014.56 1015.04
998.98 999.80 1000.89 1001.78 1002.75 1003.60 1004.45 1004.89 1004.46 1004.60 1004.95 1002.77 1000.98 1000.70 1000.93 1000.34 1000.41 1000.62 1001.11 1002.02 1003.16 1004.76 1007.08 1008.84 1009.73 1009.67 1010.32 1011.15 1010.88 1010.34 1009.44 1009.63 1010.28 1011.15 1011.09 1011.40 1013.06 1013.19 1013.28 1013.81 1014.64 1015.23 1015.76 1016.58
999.15 999.88 1000.95 1001.84 1002.68 1003.59 1003.91 1005.12 1004.03 1004.31 1005.08 1004.58 1002.56 1002.24 1001.80 1001.29 1001.35 1001.60 1002.29 1002.81 1003.69 1004.83 1006.73 1008.54 1008.79 1008.71 1009.27 1011.20 1011.35 1010.30 1009.53 1009.65 1009.64 1010.82 1011.25 1012.08 1013.46 1014.20 1014.64 1015.19 1016.03 1016.60 1017.14 1017.86
998.93 999.84 1000.61 1001.78 1002.69 1002.69 1003.45 1002.17 1001.86 1002.92 1004.54 1004.50 1003.94 1003.62 1002.55 1002.38 1002.70 1003.65 1003.69 1003.67 1005.00 1005.68 1007.41 1008.60 1009.07 1009.24 1009.63 1010.91 1010.93 1010.46 1010.09 1010.33 1010.69 1011.12 1011.94 1013.44 1013.96 1015.33 1015.95 1016.49 1017.32 1017.85 1018.40 1019.00
999.27 999.97 1001.04 1001.68 1001.80 1002.74 1003.56 1002.35 1001.97 1001.94 1001.53 1001.99 1004.72 1005.57 1005.22 1004.20 1004.92 1005.56 1005.48 1005.58 1006.43 1007.46 1008.57 1008.89 1009.63 1010.03 1010.26 1011.12 1010.70 1010.45 1010.58 1010.94 1011.50 1012.11 1012.25 1013.88 1015.08 1015.89 1016.76 1017.52 1018.20 1018.86 1019.55 1020.14
999.16 1000.21 1000.97 1001.63 1002.42 1002.60 1001.42 1001.06 1000.74 1000.21 1001.15 1003.56 1005.43 1006.59 1006.55 1005.98 1006.77 1006.84 1006.91 1007.04 1008.67 1008.95 1009.40 1009.60 1009.92 1011.18 1011.56 1010.99 1010.94 1011.09 1011.19 1011.38 1012.40 1013.32 1014.12 1015.08 1015.85 1016.78 1017.70 1018.46 1019.22 1019.75 1020.59 1021.01
998.78 999.67 999.71 1000.71 1000.91 1000.92 1000.59 1000.55 1000.83 1002.03 1003.31 1004.93 1006.83 1007.21 1007.45 1007.39 1007.88 1008.46 1008.75 1008.74 1009.44 1010.04 1010.33 1010.01 1010.75 1011.94 1012.12 1011.78 1011.65 1011.75 1011.83 1012.21 1012.91 1014.10 1015.47 1016.06 1016.82 1017.76 1018.56 1019.35 1020.01 1020.59 1021.23 1021.97
998.07 998.31 999.65 1000.60 1000.36 1000.12 1001.03 1002.74 1003.55 1004.69 1006.15 1007.20 1007.76 1007.61 1007.52 1007.33 1007.90 1008.64 1009.21 1009.65 1009.76 1010.39 1010.81 1010.98 1011.64 1012.38 1012.57 1012.61 1012.62 1012.70 1012.71 1012.92 1013.57 1014.44 1015.65 1016.45 1017.35 1018.43 1019.35 1020.32 1021.11 1021.77 1022.42 1022.97
997.70 998.83 1000.10 1000.42 1000.96 1002.23 1003.73 1005.67 1006.39 1006.92 1007.98 1007.94 1007.29 1007.39 1007.54 1007.54 1007.52 1008.68 1009.46 1010.06 1010.13 1010.61 1010.70 1011.42 1012.41 1012.78 1012.83 1013.10 1013.45 1013.65 1013.98 1014.26 1014.98 1015.73 1016.71 1017.67 1018.52 1019.35 1020.27 1021.32 1022.10 1022.69 1023.28 1023.76
998.54 999.81 1001.97 1002.99 1004.06 1004.60 1006.13 1006.90 1006.89 1007.20 1007.52 1007.80 1007.43 1008.12 1008.35 1008.27 1008.26 1009.10 1009.65 1010.17 1010.69 1010.70 1011.40 1011.96 1012.53 1013.02 1013.44 1013.83 1014.20 1014.67 1015.17 1015.79 1016.61 1017.51 1018.25 1019.02 1019.92 1020.70 1021.31 1022.12 1022.80 1023.35 1023.91 1024.40
1001.71 1003.72 1005.70 1006.48 1007.14 1007.68 1007.87 1008.21 1008.38 1008.94 1008.92 1008.75 1008.51 1009.02 1009.52 1009.56 1009.44 1009.80 1010.40 1011.36 1011.28 1011.59 1012.21 1012.71 1013.25 1013.64 1014.10 1014.48 1015.01 1015.49 1016.39 1017.27 1018.05 1018.90 1019.67 1020.39 1021.08 1021.87 1022.50 1022.98 1023.42 1023.89 1024.46 1024.98
1005.07 1006.27 1008.22 1008.99 1009.38 1009.50 1009.68 1009.57 1009.58 1009.84 1009.69 1009.43 1009.41 1009.70 1009.85 1010.29 1010.34 1010.66 1011.32 1011.74 1011.94 1012.21 1013.00 1013.53 1013.91 1014.38 1014.76 1015.33 1016.06 1016.66 1017.40 1018.34 1019.20 1019.98 1020.62 1021.33 1021.92 1022.51 1023.18 1023.64 1023.96 1024.34 1024.87 1025.41
1007.85 1009.26 1009.88 1010.03 1010.03 1010.40 1010.41 1010.23 1010.40 1010.46 1010.18 1009.70 1009.80 1010.06 1010.64 1011.04 1011.16 1011.46 1011.89 1012.48 1013.19 1013.88 1014.27 1014.52 1014.76 1015.21 1015.68 1016.34 1016.93 1017.56 1018.26 1019.06 1019.97 1020.63 1021.24 1021.87 1022.46 1022.96 1023.53 1024.02 1024.39 1024.76 1025.15 1025.68
1010.28 1011.43 1011.40 1011.34 1011.45 1011.59 1011.34 1011.16 1010.95 1010.51 1010.47 1010.81 1010.86 1011.29 1011.84 1011.88 1012.07 1013.05 1013.61 1014.30 1014.76 1014.99 1015.25 1015.42 1015.62 1015.96 1016.73 1017.38 1017.87 1018.35 1018.97 1019.76 1020.47 1021.10 1021.71 1022.19 1022.70 1023.28 1023.87 1024.27 1024.68 1025.08 1025.42 1025.73
Thickness
5451 5469 5484 5496 5502 5504 5506 5528 5541 5560 5552 5539 5557 5577 5603 5623 5641 5649 5648 5660 5660 5655 5658 5648 5648 5647 5658 5677 5673 5651 5640 5626 5606 5635 5661 5672 5666 5653 5642 5597 5618 5599 5590 5609
5431 5449 5468 5482 5489 5500 5508 5527 5537 5539 5556 5552 5564 5585 5597 5615 5627 5636 5646 5653 5661 5665 5654 5622 5655 5650 5659 5668 5663 5653 5654 5632 5592 5616 5639 5660 5654 5658 5657 5641 5613 5609 5581 5607
5406 5433 5445 5466 5479 5492 5502 5519 5525 5532 5544 5582 5581 5582 5596 5604 5628 5632 5644 5652 5657 5654 5650 5653 5646 5641 5653 5660 5654 5648 5655 5641 5618 5595 5623 5643 5640 5647 5649 5639 5591 5601 5600 5630
5392 5410 5427 5450 5464 5479 5490 5512 5541 5563 5562 5564 5579 5586 5596 5604 5609 5631 5644 5642 5647 5647 5646 5653 5651 5642 5640 5649 5644 5654 5644 5624 5637 5636 5640 5641 5643 5643 5643 5638 5632 5611 5626 5632
5378 5394 5403 5429 5453 5461 5475 5518 5553 5560 5575 5575 5574 5586 5597 5607 5618 5628 5632 5633 5647 5650 5644 5648 5641 5645 5642 5640 5640 5642 5643 5614 5626 5622 5632 5627 5623 5635 5639 5640 5644 5645 5644 5638
5371 5385 5393 5418 5438 5441 5466 5509 5551 5567 5565 5570 5567 5596 5606 5613 5622 5633 5645 5646 5645 5642 5648 5653 5654 5659 5653 5648 5633 5626 5621 5600 5589 5596 5602 5607 5589 5623 5630 5637 5643 5640 5623 5633
5370 5378 5392 5405 5423 5439 5470 5509 5533 5549 5556 5567 5593 5595 5602 5612 5619 5621 5643 5649 5642 5645 5656 5651 5645 5641 5637 5638 5633 5631 5607 5600 5578 5572 5573 5564 5616 5647 5646 5636 5631 5632 5629 5629
5371 5375 5390 5402 5416 5437 5459 5491 5511 5541 5536 5576 5575 5590 5607 5611 5620 5618 5635 5641 5651 5652 5643 5612 5606 5590 5605 5618 5621 5617 5615 5587 5572 5564 5562 5593 5618 5630 5633 5629 5613 5625 5622 5623
5370 5375 5387 5406 5416 5435 5457 5482 5501 5529 5551 5579 5598 5591 5602 5600 5598 5602 5616 5627 5629 5646 5613 5592 5596 5580 5598 5591 5603 5605 5606 5591 5569 5558 5559 5556 5598 5629 5637 5634 5584 5618 5617 5613
5369 5372 5384 5404 5419 5438 5455 5476 5494 5519 5550 5577 5588 5594 5607 5615 5603 5596 5604 5609 5610 5629 5581 5586 5580 5584 5612 5585 5581 5574 5562 5561 5556 5535 5538 5573 5615 5629 5632 5587 5582 5613 5611 5607
5368 5373 5383 5405 5426 5443 5456 5479 5495 5516 5542 5571 5595 5607 5606 5608 5610 5592 5597 5589 5586 5590 5593 5585 5580 5572 5590 5587 5598 5584 5575 5559 5542 5553 5552 5565 5621 5621 5600 5597 5607 5605 5603 5600
5368 5375 5388 5412 5431 5447 5463 5475 5499 5513 5527 5557 5577 5599 5611 5630 5631 5611 5602 5607 5603 5615 5606 5595 5581 5577 5568 5586 5573 5609 5583 5591 5577 5582 5576 5604 5619 5611 5612 5609 5601 5594 5590 5587
5371 5377 5396 5421 5441 5454 5472 5482 5501 5512 5526 5551 5563 5584 5605 5625 5626 5633 5607 5608 5616 5625 5630 5602 5585 5580 5564 5570 5574 5601 5614 5616 5588 5593 5608 5610 5610 5601 5600 5597 5588 5582 5573 5568
5376 5390 5414 5434 5451 5470 5480 5488 5506 5517 5530 5541 5562 5586 5595 5607 5621 5628 5630 5625 5626 5628 5623 5590 5575 5580 5598 5568 5590 5584 5599 5607 5599 5592 5600 5591 5584 5583 5581 5575 5570 5562 5552 5545
5388 5407 5427 5444 5456 5470 5481 5492 5509 5515 5521 5543 5564 5577 5587 5600 5608 5616 5622 5621 5619 5611 5595 5569 5579 5581 5587 5564 5573 5570 5602 5595 5575 5558 5589 5584 5569 5567 5565 5557 5547 5540 5530 5517
5405 5421 5435 5453 5469 5479 5495 5504 5521 5520 5517 5529 5548 5565 5575 5590 5599 5604 5608 5609 5610 5608 5593 5579 5590 5600 5585 5556 5550 5591 5594 5591 5591 5579 5578 5571 5557 5546 5541 5533 5522 5515 5508 5499
5429 5439 5452 5464 5480 5500 5508 5519 5522 5529 5525 5532 5531 5539 5567 5580 5583 5578 5590 5598 5590 5593 5584 5567 5577 5586 5581 5546 5556 5581 5580 5577 5574 5570 5565 5550 5547 5525 5518 5511 5502 5495 5488 5479
5449 5460 5466 5476 5486 5491 5502 5515 5529 5538 5552 5550 5525 5521 5538 5562 5550 5551 5569 5571 5571 5569 5566 5565 5555 5562 5548 5551 5570 5571 5570 5565 5558 5550 5551 5532 5520 5511 5502 5494 5485 5476 5466 5458
5467 5473 5480 5488 5493 5500 5519 5526 5537 5552 5550 5525 5516 5522 5532 5546 5538 5540 5551 5560 5541 5551 5540 5545 5549 5528 5544 5563 5560 5555 5554 5553 5541 5530 5520 5510 5502 5494 5483 5473 5463 5455 5445 5439
5488 5487 5498 5498 5503 5506 5521 5533 5536 5532 5530 5521 5505 5516 5523 5533 5517 5522 5528 5524 5534 5523 5533 5541 5527 5514 5532 5537 5537 5535 5536 5533 5523 5506 5492 5488 5484 5474 5467 5455 5446 5439 5431 5419
5508 5511 5503 5506 5513 5524 5520 5508 5514 5513 5498 5497 5499 5511 5518 5527 5522 5519 5516 5518 5516 5510 5519 5519 5521 5510 5518 5517 5516 5513 5515 5518 5510 5498 5485 5478 5468 5454 5443 5432 5422 5411 5401 5394
5519 5516 5512 5513 5513 5505 5498 5489 5485 5499 5497 5488 5505 5509 5517 5513 5525 5507 5511 5514 5505 5515 5519 5516 5504 5504 5506 5502 5498 5498 5495 5491 5485 5477 5465 5455 5446 5436 5423 5410 5400 5391 5383 5376
5521 5511 5496 5502 5487 5499 5498 5490 5502 5500 5490 5492 5497 5497 5498 5503 5510 5502 5503 5517 5507 5499 5509 5505 5491 5495 5489 5486 5484 5479 5473 5466 5456 5446 5438 5430 5418 5408 5401 5391 5382 5374 5366 5358
5493 5483 5478 5474 5479 5470 5471 5476 5479 5471 5474 5482 5489 5488 5487 5485 5493 5491 5503 5484 5489 5498 5498 5496 5478 5475 5472 5470 5467 5461 5451 5438 5429 5420 5410 5402 5395 5385 5377 5371 5362 5355 5347 5340
5469 5466 5458 5452 5449 5454 5455 5457 5462 5461 5467 5473 5482 5481 5485 5480 5485 5480 5480 5486 5490 5490 5478 5468 5462 5458 5456 5452 5443 5434 5425 5415 5407 5398 5390 5382 5375 5367 5360 5351 5345 5338 5328 5319
5446 5439 5447 5446 5453 5451 5452 5455 5457 5457 5460 5470 5473 5476 5477 5475 5475 5481 5483 5481 5467 5459 5449 5443 5443 5440 5437 5430 5423 5416 5408 5398 5388 5381 5374 5366 5357 5350 5342 5333 5325 5317 5309 5300
5432 5426 5425 5432 5437 5438 5443 5444 5450 5455 5460 5464 5463 5468 5460 5458 5469 5459 5447 5443 5438 5433 5428 5427 5425 5423 5413 5405 5401 5396 5389 5379 5371 5364 5357 5350 5341 5331 5322 5317 5310 5302 5292 5282